This is the latest recevied weather packets stored in our database for station/object SP8EBC-11. If no packets are shown the sender has not sent any weather packets the latest 1 day(s).
| Time | Temp. | Humidity | Pressure | Rain* | Wind** | Luminosity | Snow |
|---|---|---|---|---|---|---|---|
| 1777964240 | 15.56° C | 69% | 994.6 hPa | - | 1.34 m/s, 88° | - | - |
| 1777963992 | 15.56° C | 69% | 994.6 hPa | - | 1.79 m/s, 109° | - | - |
| 1777963872 | 15.56° C | 69% | 994.6 hPa | - | 1.79 m/s, 109° | - | - |
| 1777963752 | 15.56° C | 69% | 994.5 hPa | - | 1.79 m/s, 95° | - | - |
| 1777963632 | 15° C | 69% | 994.6 hPa | - | 1.79 m/s, 81° | - | - |
| 1777963512 | 15° C | 69% | 994.5 hPa | - | 2.24 m/s, 88° | - | - |
| 1777963392 | 15° C | 69% | 994.5 hPa | - | 1.79 m/s, 98° | - | - |
| 1777963272 | 15° C | 70% | 994.4 hPa | - | 1.79 m/s, 93° | - | - |
| 1777963157 | 15° C | 69% | 994.5 hPa | - | 1.79 m/s, 96° | - | - |
| 1777963032 | 15° C | 69% | 994.6 hPa | - | 1.79 m/s, 107° | - | - |
| 1777962912 | 15° C | 70% | 994.6 hPa | - | 2.24 m/s, 103° | - | - |
| 1777962792 | 15° C | 70% | 994.6 hPa | - | 1.79 m/s, 100° | - | - |
| 1777962672 | 15° C | 69% | 994.7 hPa | - | 1.34 m/s, 110° | - | - |
| 1777962552 | 15° C | 69% | 994.7 hPa | - | 1.79 m/s, 107° | - | - |
| 1777962432 | 15° C | 69% | 994.8 hPa | - | 1.79 m/s, 108° | - | - |
| 1777962312 | 15° C | 70% | 994.8 hPa | - | 2.24 m/s, 93° | - | - |
| 1777962191 | 15° C | 70% | 994.7 hPa | - | 2.24 m/s, 96° | - | - |
| 1777962071 | 15° C | 70% | 994.7 hPa | - | 2.24 m/s, 102° | - | - |
| 1777961951 | 15° C | 70% | 994.8 hPa | - | 2.24 m/s, 94° | - | - |
| 1777961831 | 15° C | 70% | 994.9 hPa | - | 2.68 m/s, 103° | - | - |
| 1777961711 | 15° C | 70% | 994.8 hPa | - | 2.68 m/s, 113° | - | - |
| 1777961591 | 15° C | 70% | 994.8 hPa | - | 2.24 m/s, 115° | - | - |
| 1777961471 | 15° C | 70% | 994.7 hPa | - | 1.79 m/s, 112° | - | - |
| 1777961351 | 15° C | 70% | 994.5 hPa | - | 1.79 m/s, 90° | - | - |
| 1777961231 | 14.44° C | 70% | 994.4 hPa | - | 1.79 m/s, 97° | - | - |
* Rain since midnight (hover to see other rain measurements)
** Current wind speed in m/s (hover to see current wind gust speed)